Location: Mahannah Oil Field
(37.4664°N, 96.6003°W)
Time: 01:51:53
(UTC+00:00)

A-11 Canister half - Pass Details

Date: 26 January 2021
Orbit: 1524 x 1684 km, 47.3° (Epoch: 25 February)

Event Time Altitude Azimuth Distance (km) Brightness Sun altitude
Rises 23:44:03 0° 288° (WNW) 4,701 12.4 -0.8°
Reaches altitude 10° 23:47:16 10° 294° (WNW) 3,733 11.7 -1.4°
Maximum altitude 23:56:21 48° 8° (N) 1,977 9.5 -3.0°
Drops below altitude 10° 00:05:44 10° 81° (E) 3,850 10.4 -4.8°
Enters shadow 00:07:36 - 85° (E) 4,405 10.8 -5.1°
Sets 00:09:06 0° 87° (E) 4,857 - -5.4°
